OBJECT BF, 60521

Orbit data source: Space-Track

You're viewing an Uncataloged Satellite

Recently launched and/or uncataloged satellites may have evolving metadata. Metadata may include but not limited to: Owner, Maufacturer, Bus, Motor, and Mission.

OBJECT BF, 60521 is a satellite in SSO that was launched on Fri, 16 Aug 2024 UTC via an FALCON 9 launch vehicle from the Air Force Western Test Range (AFWTR). Unknown objects in Earth's orbit typically refer to objects detected orbiting the Earth but have not yet been identified or cataloged. These objects could be anything from previously untracked satellites, spent rocket stages, debris from satellite collisions, or even natural meteoroids temporarily captured by Earth's gravity.

Loading next visibility...
Identifier
60521, 2024-149BF
Orbit
SSO
Country
Flag of TBDTBD
Related business
Flag of SESwedish Defence Research Agency (SE)
Manufacturer
FOI
Mission
Operational Defense Communications
Bus & Motor
CUBESAT 3U, Unknown motor
Mass
4 kg wet, 4 kg dry
Launch date (UTC)
2024-08-16 (2 years ago)
Launch vehicle
FALCON 9
Launch site
Air Force Western Test Range (AFWTR)
Object type
Unknown
Shape & HBR
Box, 0.1 m
Radar Cross Section
0.035 m², Medium (>0.1 m² and < 1m²)

Expand to show TLE details & history
Last TLE update: 10 hours ago

TLE from 10 hours ago
0 OBJECT BF
1 60521U 24149BF  26126.49984200  .00111478  00000-0  87121-3 0  9991
2 60521  97.3779 219.7167 0000903  65.6541 294.4816 15.71298474 96513
Epoch: 2026-05-06T11:59Z
TLE epoch observation values (Epoch: 2026-05-06T11:59:46.348Z)
Latitude
-0.00005°
Longitude
175.41414°
Altitude
358.093 km
Speed
7.694 km/s
True Right ascension
14h 38m 52s
True Declination
0° 00' 00"
Sunlit
Object was in full shadow at epoch
Visualization orbit readout
Latitude
Unknown
Longitude
Unknown
Altitude
Unknown
Speed
Unknown
Apparent Right ascension
Unknown
Apparent Declination
Unknown
Sunlit
N/A
Visualization observer readout
Local Sidereal Time
05:41:54
Azimuth
Unknown
Elevation
Unknown
Doppler factor
Unknown
Orbital elements
Apogee altitude
352.689 km
Perigee altitude
351.474 km
Semi-major axis
6,730.219 km
Eccentricity
0.00009
Inclination
97.3779°
RAAN
219.7167°
Arg. of periapsis
65.6541°
True anomaly
294.47218°
Mean anomaly
294.4816°
Eccentric anomaly
294.47689°
Mean motion
3.93097 °/min
Orbital period
91.58 mins
BSTAR
0.00087121
Loading maneuver chart data...
Computing Atmospheric mass density...

Documentation

Showing up to 5 results
|